GW4039 Weather Reports


time (UTC)temp
F
wind
direction
speed
knots
gust
knots
rain 1hr
in
rain 24hr
in
rain mn
in
humidity
%
barometer
mb
20260510073335 0 183 0.0 0.9 0.05 0.08 0.08 1010.1
20260510072831 0 189 0.0 0.0 0.05 0.08 0.08 1010.6
20260510072328 0 189 1.7 1.7 0.00 0.07 0.07 1010.7
20260510071824 0 195 0.9 1.7 0.00 0.07 0.07 1010.6
20260510071320 0 213 0.9 0.9 0.00 0.07 0.07 1010.5
20260510070820 0 209 0.9 0.9 0.00 0.07 0.07 1010.7
20260510070311 0 222 0.9 0.9 0.00 0.07 0.07 1010.6
20260510065810 0 216 0.9 0.9 0.00 0.07 0.07 1011.0
20260510065308 0 207 0.9 0.9 0.07 0.07 0.07 1010.7
20260510064804 0 211 0.0 0.9 0.12 0.07 0.07 1010.6
20260510064302 0 192 1.7 1.7 0.12 0.06 0.06 1010.6
20260510063757 0 172 1.7 2.6 0.07 0.05 0.05 1010.9
20260510063254 0 163 3.5 3.5 0.05 0.04 0.04 1010.9
20260510062750 0 174 1.7 3.5 0.12 0.04 0.04 1010.9
20260510062246 0 231 1.7 1.7 0.07 0.03 0.03 1011.1
20260510061742 0 222 2.6 3.5 0.00 0.02 0.02 1011.0
20260510061239 0 208 0.9 0.9 0.07 0.02 0.02 1010.8
20260510060735 0 233 1.7 1.7 0.07 0.02 0.02 1010.8
20260510060232 0 239 1.7 2.6 0.00 0.01 0.01 1010.7
20260510055729 0 194 0.9 0.9 0.00 0.01 0.01 1010.7
20260510055227 0 217 1.7 1.7 0.00 0.01 0.01 1010.7
20260510054727 0 217 3.5 5.2 0.05 0.01 0.01 1010.7
20260510054223 0 203 1.7 2.6 0.05 0.01 0.01 1010.5
20260510053722 0 261 1.7 2.6 0.00 0.00 0.00 1010.6
20260510053219 0 179 0.9 1.7 0.00 0.00 0.00 1010.6
20260510052715 0 222 0.9 0.9 0.00 0.00 0.00 1010.6
20260510052211 0 191 1.7 2.6 0.00 0.00 0.00 1010.4
20260510051707 0 197 0.9 1.7 0.00 0.00 0.00 1010.4
20260510051204 0 199 0.0 0.9 0.00 0.00 0.00 1010.5
20260510050701 0 191 0.0 0.9 0.00 0.00 0.00 1010.5
20260510050158 0 198 0.9 0.9 0.00 0.00 0.00 1010.5
20260510045655 0 213 2.6 3.5 0.00 0.00 0.00 1010.6
20260510045152 0 192 0.9 1.7 0.00 0.00 0.00 1010.7
20260510044648 0 205 0.9 0.9 0.00 0.00 0.00 1010.6
20260510044145 0 182 0.9 0.9 0.00 0.00 0.00 1010.6
20260510043641 0 178 1.7 2.6 0.00 0.00 0.00 1011.0
20260510043137 0 203 0.9 1.7 0.00 0.00 0.00 1010.7
20260510042635 0 206 0.9 1.7 0.00 0.00 0.00 1010.7
20260510042131 0 212 0.0 0.9 0.00 0.00 0.00 1010.7
20260510041628 0 208 2.6 2.6 0.00 0.00 0.00 1010.6
20260510041125 0 194 2.6 3.5 0.00 0.00 0.00 1010.6
20260510040623 0 220 2.6 3.5 0.00 0.00 0.00 1010.7
20260510040119 0 236 1.7 2.6 0.00 0.02 0.02 1010.7
20260510035615 0 270 1.7 2.6 0.00 0.02 0.02 1011.0
20260510035115 0 237 0.9 0.9 0.00 0.02 0.02 1010.7
20260510034612 0 228 1.7 1.7 0.00 0.02 0.02 1010.5
20260510034109 0 238 1.7 1.7 0.00 0.02 0.02 1010.2
20260510033606 0 203 0.0 0.0 0.00 0.02 0.02 1010.3
20260510033103 0 214 0.0 0.0 0.00 0.02 0.02 1010.2
20260510032559 0 169 0.9 0.9 0.00 0.02 0.02 1010.3
20260510032055 0 174 1.7 1.7 0.00 0.02 0.02 1010.5
20260510031550 0 192 0.0 0.0 0.00 0.02 0.02 1010.5
20260510031046 0 173 2.6 2.6 0.00 0.02 0.02 1010.4
20260510030541 0 169 2.6 2.6 0.00 0.02 0.02 1010.7
20260510030039 0 193 0.0 0.9 0.00 0.02 0.02 1010.8
20260510025536 0 203 0.0 0.9 0.00 0.02 0.02 1010.9
20260510025034 0 200 0.0 0.0 0.00 0.02 0.02 1010.8
20260510024530 0 191 0.0 0.9 0.00 0.02 0.02 1010.7
20260510024026 0 166 2.6 2.6 0.00 0.02 0.02 1010.6
20260510023522 0 208 0.0 0.0 0.00 0.02 0.02 1010.6
20260510023021 0 190 0.9 0.9 0.00 0.02 0.02 1010.8
20260510022520 0 200 0.0 0.0 0.00 0.02 0.02 1011.0
20260510022020 0 220 0.0 0.0 0.00 0.02 0.02 1010.9
20260510021517 0 218 0.0 0.0 0.00 0.02 0.02 1010.8
20260510021014 0 217 0.0 0.0 0.00 0.02 0.02 1010.7
20260510020508 0 217 0.0 0.0 0.00 0.02 0.02 1010.6
20260510020004 0 217 0.0 0.0 0.00 0.02 0.02 1010.8
20260510015500 0 217 0.0 0.0 0.00 0.02 0.02 1010.9
20260510014955 0 217 0.0 0.0 0.00 0.02 0.02 1011.0
20260510014453 0 217 0.0 0.0 0.00 0.02 0.02 1010.8
20260510013950 0 217 0.0 0.0 0.00 0.02 0.02 1010.9
20260510013444 0 217 0.0 0.0 0.00 0.02 0.02 1010.9
20260510012940 0 217 0.0 0.0 0.00 0.02 0.02 1010.8
20260510012435 0 217 0.0 0.0 0.00 0.02 0.02 1010.9
20260510011930 0 228 0.0 0.0 0.00 0.02 0.02 1010.9
20260510011425 0 228 0.0 0.0 0.00 0.02 0.02 1011.0
20260510010921 0 228 0.0 0.0 0.00 0.02 0.02 1011.1
20260510010419 0 218 0.0 0.0 0.00 0.02 0.02 1010.9
20260510005916 0 204 0.0 0.0 0.00 0.02 0.02 1010.9
20260510005412 0 203 0.9 0.9 0.00 0.02 0.02 1011.1
20260510004909 0 185 0.0 0.0 0.00 0.02 0.02 1011.0
20260510004407 0 181 1.7 1.7 0.00 0.02 0.02 1010.9
20260510003904 0 181 1.7 1.7 0.00 0.02 0.02 1010.8
20260510003401 0 191 0.9 0.9 0.00 0.02 0.02 1011.0
20260510002900 0 203 0.0 0.0 0.00 0.02 0.02 1010.9
20260510002358 0 220 0.0 0.0 0.00 0.02 0.02 1011.0
20260510001854 0 220 0.0 0.0 0.00 0.02 0.02 1011.0
20260510001352 0 221 0.0 0.0 0.00 0.02 0.02 1011.1
20260510000848 0 234 1.7 1.7 0.00 0.02 0.02 1011.0
20260510000345 0 217 0.0 0.0 0.00 0.02 0.02 1011.0
20260509235841 0 217 0.0 0.0 0.00 0.02 0.02 1010.8
20260509235333 0 216 0.0 0.0 0.00 0.02 0.02 1010.9
20260509234829 0 217 0.9 0.9 0.00 0.02 0.02 1010.7
20260509234326 0 200 0.9 0.9 0.00 0.02 0.02 1010.6
20260509233824 0 244 0.9 1.7 0.00 0.02 0.02 1010.6
20260509233321 0 221 0.9 1.7 0.00 0.02 0.02 1010.7
20260509232817 0 215 0.0 0.9 0.00 0.02 0.02 1010.6
20260509232315 0 207 0.0 0.0 0.00 0.02 0.02 1010.5
20260509231811 0 212 0.9 0.9 0.00 0.02 0.02 1010.6
20260509231308 0 224 0.0 0.0 0.00 0.02 0.02 1010.6
20260509230805 0 221 0.0 0.9 0.00 0.02 0.02 1010.6
20260509230302 0 228 0.9 0.9 0.00 0.02 0.02 1010.5
20260509225757 0 217 0.0 0.0 0.00 0.02 0.02 1010.5
20260509225253 0 218 0.9 0.9 0.00 0.02 0.02 1010.5
20260509224749 0 195 0.0 0.0 0.00 0.02 0.02 1010.4
20260509224247 0 193 0.0 0.0 0.00 0.02 0.02 1010.5
20260509223743 0 202 0.0 0.0 0.00 0.02 0.02 1010.6
20260509223240 0 192 0.9 1.7 0.00 0.02 0.02 1010.6
20260509222737 0 200 0.0 0.9 0.00 0.02 0.02 1010.7
20260509222232 0 221 0.0 0.0 0.00 0.02 0.02 1010.6
20260509221728 0 249 0.9 0.9 0.00 0.02 0.02 1010.8
20260509221225 0 202 0.0 0.9 0.00 0.02 0.02 1010.8
20260509220720 0 222 0.9 0.9 0.00 0.02 0.02 1010.9
20260509220217 0 219 0.9 0.9 0.00 0.02 0.02 1010.9
20260509215712 0 203 0.0 0.9 0.00 0.02 0.02 1011.0
20260509215209 0 212 0.0 0.9 0.00 0.02 0.02 1011.1
20260509214707 0 206 0.0 0.9 0.00 0.02 0.02 1010.9
20260509214204 0 206 0.0 0.0 0.00 0.02 0.02 1010.9
20260509213701 0 199 0.0 0.0 0.00 0.02 0.02 1011.2
20260509213156 0 224 0.9 0.9 0.00 0.02 0.02 1011.1
20260509212654 0 212 0.9 0.9 0.00 0.02 0.02 1011.3
20260509212151 0 232 0.9 1.7 0.00 0.02 0.02 1011.1
20260509211646 0 198 0.0 0.0 0.07 0.02 0.02 1011.4
20260509211144 0 196 0.0 0.0 0.07 0.02 0.02 1011.4
20260509210641 0 201 0.9 0.9 0.00 0.01 0.01 1011.3
20260509210137 0 210 0.9 0.9 0.00 0.01 0.01 1011.5
20260509205632 0 181 0.0 0.9 0.00 0.01 0.01 1011.3
20260509205127 0 166 2.6 2.6 0.00 0.01 0.01 1011.5
20260509204623 0 192 0.9 0.9 0.00 0.01 0.01 1011.4
20260509204120 0 170 0.9 1.7 0.00 0.01 0.01 1011.5
20260509203616 0 196 0.9 0.9 0.00 0.01 0.01 1011.4
20260509203115 0 192 0.9 0.9 0.00 0.01 0.01 1011.6
20260509202614 0 187 0.0 0.9 0.00 0.01 0.01 1011.5
20260509202104 0 185 1.7 2.6 0.00 0.01 0.01 1011.6
20260509201605 0 193 0.0 0.0 0.00 0.01 0.01 1011.7
20260509201103 0 181 0.9 0.9 0.00 0.01 0.01 1011.7
20260509200602 0 188 0.0 0.9 0.00 0.01 0.01 1011.7
20260509200058 0 216 0.0 0.9 0.00 0.01 0.01 1011.6
20260509195554 0 179 0.0 0.9 0.00 0.01 0.01 1012.0
20260509195049 0 182 0.0 0.0 0.00 0.01 0.01 1011.7
20260509194549 0 178 0.0 0.0 0.00 0.01 0.01 1011.9
20260509194047 0 174 0.9 0.9 0.00 0.01 0.01 1011.8
20260509193542 0 176 0.0 0.0 0.00 0.01 0.01 1011.9
20260509193039 0 189 1.7 1.7 0.00 0.01 0.01 1012.1
20260509192536 0 190 0.9 1.7 0.00 0.01 0.01 1012.0
20260509192031 0 185 0.0 0.9 0.00 0.01 0.01 1012.1
20260509191531 0 200 0.0 0.0 0.00 0.01 0.01 1011.8
20260509191027 0 183 0.0 0.0 0.00 0.01 0.01 1012.0
20260509190524 0 187 0.9 0.9 0.00 0.01 0.01 1012.2
20260509190022 0 183 0.0 0.0 0.00 0.01 0.01 1012.0
20260509185519 0 189 0.0 0.0 0.00 0.01 0.01 1012.3
20260509185015 0 169 0.0 0.0 0.00 0.01 0.01 1012.1
20260509184514 0 162 0.0 0.0 0.00 0.01 0.01 1012.3
20260509184009 0 158 0.0 0.0 0.00 0.01 0.01 1012.4
20260509183505 0 198 0.0 0.0 0.00 0.01 0.01 1012.4
20260509183001 0 203 0.0 0.0 0.00 0.01 0.01 1012.3
20260509182458 0 164 0.0 0.0 0.00 0.01 0.01 1012.3
20260509181955 0 179 0.9 0.9 0.00 0.01 0.01 1012.4
20260509181453 0 163 0.0 0.0 0.00 0.01 0.01 1012.3
20260509180950 0 192 0.0 0.0 0.00 0.01 0.01 1012.5
20260509180445 0 174 0.0 0.0 0.00 0.01 0.01 1012.4
20260509175942 0 229 0.0 0.0 0.00 0.01 0.01 1012.3
20260509175438 0 229 0.0 0.0 0.00 0.01 0.01 1012.4
20260509174930 0 229 0.0 0.0 0.00 0.01 0.01 1012.6
20260509174426 0 269 0.9 0.9 0.00 0.01 0.01 1012.6
20260509173922 0 228 0.0 0.9 0.00 0.01 0.01 1012.8
20260509173421 0 228 0.0 0.9 0.00 0.01 0.01 1012.8
20260509172918 0 226 0.9 0.9 0.00 0.01 0.01 1012.6
20260509172415 0 231 0.9 0.9 0.00 0.01 0.01 1012.8
20260509171911 0 320 0.9 0.9 0.00 0.01 0.01 1012.8
20260509171407 0 232 0.9 0.9 0.00 0.01 0.01 1012.8
20260509170903 0 221 0.0 0.0 0.00 0.01 0.01 1012.8
20260509170359 0 190 0.9 0.9 0.00 0.01 0.01 1013.0
20260509165855 0 202 0.9 1.7 0.00 0.01 0.01 1013.0
20260509165349 0 213 0.9 0.9 0.00 0.01 0.01 1013.0
20260509164844 0 158 1.7 1.7 0.05 0.01 0.01 1013.1
20260509164340 0 211 0.0 0.0 0.05 0.01 0.01 1013.1
20260509163837 0 197 0.0 0.0 0.00 0.00 0.00 1013.4
20260509163334 0 197 0.0 0.0 0.00 0.00 0.00 1013.2
20260509162833 0 201 0.0 0.0 0.00 0.00 0.00 1013.5
20260509162331 0 194 0.9 0.9 0.00 0.00 0.00 1013.4
20260509161828 0 236 0.9 1.7 0.00 0.00 0.00 1013.4
20260509161325 0 207 0.9 0.9 0.00 0.00 0.00 1013.6
20260509160820 0 212 0.0 0.9 0.00 0.00 0.00 1013.7
20260509160316 0 201 0.0 0.9 0.00 0.00 0.00 1013.8
20260509155812 0 193 0.9 1.7 0.00 0.00 0.00 1013.9
20260509155308 0 213 1.7 1.7 0.00 0.00 0.00 1013.7
20260509154804 0 194 0.9 1.7 0.00 0.00 0.00 1013.8
20260509154301 0 221 0.9 0.9 0.00 0.00 0.00 1013.7
20260509153758 0 209 0.9 0.9 0.00 0.00 0.00 1013.8
20260509153254 0 161 3.5 3.5 0.00 0.00 0.00 1013.8
20260509152751 0 190 0.9 1.7 0.00 0.00 0.00 1013.9
20260509152247 0 198 1.7 2.6 0.00 0.00 0.00 1013.9
20260509151745 0 200 0.9 1.7 0.00 0.00 0.00 1014.2
20260509151242 0 209 1.7 1.7 0.00 0.00 0.00 1014.1
20260509150740 0 188 2.6 2.6 0.00 0.00 0.00 1014.1
20260509150238 0 208 0.0 0.9 0.00 0.00 0.00 1014.0
20260509145735 0 200 0.9 1.7 0.00 0.00 0.00 1014.1
20260509145234 0 173 1.7 1.7 0.00 0.00 0.00 1014.0
20260509144732 0 171 1.7 1.7 0.00 0.00 0.00 1014.0
20260509144228 0 188 1.7 2.6 0.00 0.00 0.00 1014.1
20260509143725 0 201 2.6 2.6 0.00 0.00 0.00 1013.9
20260509143223 0 197 3.5 3.5 0.00 0.00 0.00 1013.9
20260509142718 0 209 3.5 5.2 0.00 0.00 0.00 1014.1
20260509142215 0 205 1.7 1.7 0.00 0.00 0.00 1014.0
20260509141711 0 193 1.7 1.7 0.00 0.00 0.00 1014.1
20260509141208 0 190 2.6 2.6 0.00 0.00 0.00 1014.1
20260509140704 0 192 0.9 0.9 0.00 0.00 0.00 1013.9
20260509140202 0 185 0.0 0.9 0.00 0.00 0.00 1014.0
20260509135659 0 190 1.7 2.6 0.00 0.00 0.00 1014.1
20260509135157 0 192 0.9 0.9 0.00 0.00 0.00 1014.2
20260509134653 0 194 2.6 2.6 0.00 0.00 0.00 1014.1
20260509134151 0 199 2.6 2.6 0.00 0.00 0.00 1014.0
20260509133648 0 232 0.9 0.9 0.00 0.00 0.00 1013.9
20260509133145 0 217 0.9 0.9 0.00 0.00 0.00 1014.0
20260509132643 0 206 0.9 0.9 0.00 0.00 0.00 1014.2
20260509132141 0 182 2.6 2.6 0.00 0.00 0.00 1014.2
20260509131637 0 159 1.7 1.7 0.00 0.00 0.00 1014.3
20260509131134 0 168 1.7 1.7 0.00 0.00 0.00 1014.4
20260509130630 0 184 0.9 0.9 0.00 0.00 0.00 1014.3
20260509130127 0 173 0.9 0.9 0.00 0.00 0.00 1014.4
20260509125623 0 184 1.7 2.6 0.00 0.00 0.00 1014.3
20260509125120 0 170 1.7 1.7 0.00 0.00 0.00 1014.5
20260509124616 0 176 0.9 0.9 0.00 0.00 0.00 1014.4
20260509124114 0 166 0.0 0.9 0.00 0.00 0.00 1014.4
20260509123612 0 175 0.0 0.0 0.00 0.00 0.00 1014.4
20260509123108 0 185 0.9 0.9 0.00 0.00 0.00 1014.5
20260509122604 0 167 0.9 1.7 0.00 0.00 0.00 1014.7
20260509122102 0 189 0.0 0.0 0.00 0.00 0.00 1014.6
20260509121558 0 191 0.0 0.0 0.00 0.00 0.00 1014.6
20260509121056 0 169 0.9 1.7 0.00 0.00 0.00 1014.6
20260509120554 0 178 0.0 0.0 0.00 0.00 0.00 1014.7
20260509120052 0 185 0.9 0.9 0.00 0.00 0.00 1014.9
20260509115548 0 175 0.0 0.9 0.00 0.00 0.00 1014.8
20260509115046 0 190 0.0 0.0 0.00 0.00 0.00 1014.9
20260509114544 0 177 1.7 1.7 0.00 0.00 0.00 1014.9
20260509114043 0 167 0.0 0.0 0.00 0.00 0.00 1014.7
20260509113540 0 174 0.9 1.7 0.00 0.00 0.00 1014.8
20260509113038 0 183 1.7 2.6 0.00 0.00 0.00 1015.1
20260509112534 0 192 0.0 0.0 0.00 0.00 0.00 1014.7
20260509112031 0 221 0.0 0.0 0.00 0.00 0.00 1014.7
20260509111528 0 228 0.0 0.0 0.00 0.00 0.00 1014.9
20260509111025 0 171 0.9 0.9 0.00 0.00 0.00 1014.8
20260509110522 0 161 1.7 1.7 0.00 0.00 0.00 1015.1
20260509110019 0 209 0.0 0.0 0.00 0.00 0.00 1015.0
20260509105518 0 242 0.0 0.0 0.00 0.00 0.00 1014.9
20260509105015 0 243 0.0 0.9 0.00 0.00 0.00 1014.9
20260509104512 0 242 0.9 0.9 0.00 0.00 0.00 1015.0
20260509104009 0 243 0.0 0.9 0.00 0.00 0.00 1014.9
20260509103507 0 292 0.0 0.0 0.00 0.00 0.00 1014.6
20260509103004 0 245 0.0 0.0 0.00 0.00 0.00 1014.8
20260509102502 0 242 0.0 0.0 0.00 0.00 0.00 1014.8
20260509101958 0 242 0.0 0.0 0.00 0.00 0.00 1014.6
20260509101454 0 242 0.9 0.9 0.00 0.00 0.00 1014.8
20260509100951 0 242 0.0 0.9 0.00 0.00 0.00 1014.7
20260509100448 0 242 0.9 0.9 0.00 0.00 0.00 1014.8
20260509095945 0 242 0.0 0.0 0.00 0.00 0.00 1014.7
20260509095442 0 242 0.0 0.0 0.00 0.00 0.00 1014.7
20260509094939 0 242 0.0 0.9 0.00 0.00 0.00 1014.9
20260509094435 0 242 0.0 0.9 0.00 0.00 0.00 1014.7
20260509093933 0 242 0.9 0.9 0.00 0.00 0.00 1014.7
20260509093431 0 242 0.0 0.9 0.00 0.00 0.00 1014.6
20260509092929 0 242 0.9 0.9 0.00 0.00 0.00 1014.8
20260509092426 0 243 0.0 0.0 0.00 0.00 0.00 1014.7
20260509091925 0 246 0.9 0.9 0.00 0.00 0.00 1014.7
20260509091421 0 242 0.9 0.9 0.00 0.00 0.00 1014.6
20260509090918 0 241 0.0 0.9 0.00 0.00 0.00 1014.5
20260509090415 0 241 0.9 0.9 0.00 0.00 0.00 1014.5
20260509085913 0 241 0.0 0.0 0.00 0.00 0.00 1014.7
20260509085410 0 241 0.0 0.0 0.00 0.00 0.00 1014.5
20260509084906 0 241 0.0 0.0 0.00 0.00 0.00 1014.6
20260509084403 0 241 0.0 0.0 0.00 0.00 0.00 1014.4
20260509083901 0 241 0.0 0.0 0.00 0.00 0.00 1014.6
20260509083358 0 241 0.0 0.0 0.00 0.00 0.00 1014.5
20260509082854 0 241 0.0 0.0 0.00 0.00 0.00 1014.4
20260509082351 0 241 0.0 0.0 0.00 0.00 0.00 1014.3
20260509081848 0 241 0.0 0.0 0.00 0.00 0.00 1014.3
20260509081345 0 241 0.0 0.0 0.00 0.00 0.00 1014.3
20260509080843 0 241 0.0 0.0 0.00 0.00 0.00 1014.3
20260509080341 0 241 0.0 0.0 0.00 0.00 0.00 1014.5
20260509075839 0 273 0.0 0.0 0.00 0.00 0.00 1014.7
20260509075336 0 239 0.0 0.0 0.00 0.00 0.00 1014.5
20260509074833 0 239 0.0 0.0 0.00 0.00 0.00 1014.6
20260509074331 0 239 0.0 0.0 0.00 0.00 0.00 1014.5
20260509073826 0 240 0.0 0.9 0.00 0.00 0.00 1014.4